Location: Newark
(49.3000°N, 9.4667°E)
Time: 19:37:41
(UTC+00:00)

S-56A Canister/Altair - Pass Details

Date: 26 May 2019
Orbit: 633 x 2499 km, 38.9° (Epoch: 15 June)

Event Time Altitude Azimuth Distance (km) Brightness Sun altitude
Exits shadow 02:44:51 - 254° (WSW) 3,426 10.3 -6.1°
Reaches altitude 10° 02:46:26 10° 249° (WSW) 2,944 9.9 -6.0°
Maximum altitude 02:53:14 42° 181° (S) 1,942 9.3 -5.1°
Drops below altitude 10° 03:03:12 10° 117° (ESE) 4,297 11.7 -3.9°
Sets 03:07:29 0° 111° (ESE) 5,569 12.4 -3.3°
